N7LK Weather Reports


time (UTC)temp
C
wind
direction
speed
KPH
gust
KPH
rain 1hr
cm
rain 24hr
cm
rain mn
cm
humidity
%
barometer
mb
20260903065335 32 189 0.0 1.6 0.00 0.00 0.00 27 1009.5
20260903064341 33 215 0.0 3.2 0.00 0.00 0.00 27 1009.4
20260903063348 33 231 1.6 3.2 0.00 0.00 0.00 27 1009.3
20260903062334 33 221 1.6 4.8 0.00 0.00 0.00 27 1009.2
20260903061345 33 235 1.6 4.8 0.00 0.00 0.00 28 1009.3
20260903060352 34 216 1.6 6.4 0.00 0.00 0.00 28 1009.3
20260903055338 34 250 3.2 9.7 0.00 0.00 0.00 27 1009.2
20260903054405 34 227 3.2 11.3 0.00 0.00 0.00 26 1009.1
20260903053351 34 229 1.6 9.7 0.00 0.00 0.00 28 1009.2
20260903052342 35 296 3.2 14.5 0.00 0.00 0.00 29 1009.3
20260903051349 35 254 4.8 16.1 0.00 0.00 0.00 32 1009.3
20260903050355 35 259 6.4 11.3 0.00 0.00 0.00 35 1009.3
20260903045400 35 222 3.2 8.0 0.00 0.00 0.00 36 1009.3
20260903044326 35 220 4.8 11.3 0.00 0.00 0.00 35 1009.2
20260903043338 35 240 3.2 8.0 0.00 0.00 0.00 35 1009.2
20260903042326 35 269 3.2 8.0 0.00 0.00 0.00 35 1009.2
20260903041333 35 260 1.6 8.0 0.00 0.00 0.00 34 1009.2
20260903040325 35 254 4.8 11.3 0.00 0.00 0.00 33 1009.1
20260903035331 36 249 1.6 6.4 0.00 0.00 0.00 33 1008.9
20260903034337 36 246 3.2 12.9 0.00 0.00 0.00 32 1008.9
20260903033344 36 270 4.8 14.5 0.00 0.00 0.00 32 1008.9
20260903032350 36 231 8.0 12.9 0.00 0.00 0.00 31 1008.8
20260903031338 36 227 3.2 9.7 0.00 0.00 0.00 29 1008.7
20260903030346 36 244 6.4 16.1 0.00 0.00 0.00 29 1008.6
20260903025332 36 273 8.0 17.7 0.00 0.00 0.00 29 1008.5
20260903024338 36 273 4.8 14.5 0.00 0.00 0.00 30 1008.5
20260903023330 36 207 6.4 17.7 0.00 0.00 0.00 30 1008.3
20260903022337 36 267 6.4 11.3 0.00 0.00 0.00 29 1008.2
20260903021343 36 279 3.2 9.7 0.00 0.00 0.00 29 1008.2
20260903020335 37 250 6.4 14.5 0.00 0.00 0.00 28 1008.1
20260903015342 37 271 4.8 9.7 0.00 0.00 0.00 28 1008.0
20260903014330 37 268 3.2 9.7 0.00 0.00 0.00 28 1008.0
20260903013336 37 292 1.6 9.7 0.00 0.00 0.00 28 1007.9
20260903012403 37 274 6.4 16.1 0.00 0.00 0.00 28 1007.9
20260903011354 37 244 4.8 17.7 0.00 0.00 0.00 28 1007.9
20260903010340 38 252 8.0 17.7 0.00 0.00 0.00 28 1007.9
20260903005327 38 263 4.8 16.1 0.00 0.00 0.00 27 1007.9
20260903004354 38 255 3.2 12.9 0.00 0.00 0.00 28 1007.8
20260903003343 38 273 4.8 19.3 0.00 0.00 0.00 28 1007.9
20260903002330 38 293 3.2 16.1 0.00 0.00 0.00 27 1007.8
20260903001339 38 236 4.8 19.3 0.00 0.00 0.00 28 1007.9
20260903000406 38 273 8.0 19.3 0.00 0.00 0.00 27 1008.0
20260902235335 38 265 6.4 20.9 0.00 0.00 0.00 27 1008.1
20260902234403 39 297 4.8 12.9 0.00 0.00 0.00 27 1008.2
20260902233348 38 294 6.4 20.9 0.00 0.00 0.00 27 1008.3
20260902232335 39 253 11.3 16.1 0.00 0.00 0.00 27 1008.4
20260902231342 38 44 1.6 19.3 0.00 0.00 0.00 27 1008.4
20260902230334 38 182 6.4 20.9 0.00 0.00 0.00 27 1008.6
20260902225341 39 121 9.7 24.1 0.00 0.00 0.00 26 1008.7
20260902224327 40 259 9.7 22.5 0.00 0.00 0.00 26 1008.9
20260902223338 39 162 3.2 16.1 0.00 0.00 0.00 26 1008.9
20260902222326 39 229 9.7 22.5 0.00 0.00 0.00 26 1009.1
20260902221333 39 303 8.0 19.3 0.00 0.00 0.00 26 1009.2
20260902220359 39 263 4.8 16.1 0.00 0.00 0.00 25 1009.3
20260902215330 39 215 6.4 17.7 0.00 0.00 0.00 25 1009.5
20260902214337 39 212 6.4 19.3 0.00 0.00 0.00 25 1009.6
20260902213344 39 268 9.7 22.5 0.00 0.00 0.00 25 1009.6
20260902212330 39 205 6.4 19.3 0.00 0.00 0.00 26 1009.8
20260902211341 39 185 9.7 16.1 0.00 0.00 0.00 26 1009.9
20260902210329 39 215 6.4 19.3 0.00 0.00 0.00 25 1010.0
20260902205336 38 270 3.2 16.1 0.00 0.00 0.00 25 1010.1
20260902204403 38 215 4.8 12.9 0.00 0.00 0.00 25 1010.2
20260902203332 38 269 4.8 17.7 0.00 0.00 0.00 26 1010.5
20260902202340 38 284 9.7 19.3 0.00 0.00 0.00 27 1010.7
20260902201328 38 360 1.6 12.9 0.00 0.00 0.00 28 1010.9
20260902200335 38 194 3.2 12.9 0.00 0.00 0.00 29 1011.1
20260902195343 37 265 9.7 16.1 0.00 0.00 0.00 29 1011.2
20260902194330 37 294 8.0 16.1 0.00 0.00 0.00 29 1011.4
20260902193338 37 178 6.4 12.9 0.00 0.00 0.00 29 1011.5
20260902192346 37 93 1.6 14.5 0.00 0.00 0.00 29 1011.7
20260902191356 37 215 8.0 16.1 0.00 0.00 0.00 29 1011.8
20260902190341 37 211 4.8 14.5 0.00 0.00 0.00 30 1012.0
20260902185349 37 307 4.8 14.5 0.00 0.00 0.00 30 1012.1
20260902184332 37 217 4.8 12.9 0.00 0.00 0.00 30 1012.2
20260902183338 37 291 3.2 16.1 0.00 0.00 0.00 31 1012.3
20260902182330 37 223 4.8 9.7 0.00 0.00 0.00 31 1012.4
20260902181335 37 63 1.6 12.9 0.00 0.00 0.00 32 1012.5
20260902180342 36 103 1.6 14.5 0.00 0.00 0.00 34 1012.6
20260902175329 36 195 8.0 12.9 0.00 0.00 0.00 34 1012.7
20260902174340 36 165 3.2 9.7 0.00 0.00 0.00 35 1012.8
20260902173407 36 293 0.0 8.0 0.00 0.00 0.00 38 1012.8
20260902172332 35 313 1.6 4.8 0.00 0.00 0.00 38 1012.9
20260902171339 35 116 3.2 6.4 0.00 0.00 0.00 39 1012.9
20260902170329 35 37 4.8 8.0 0.00 0.00 0.00 40 1013.0
20260902165335 35 78 4.8 12.9 0.00 0.00 0.00 40 1013.0
20260902164402 34 220 1.6 4.8 0.00 0.00 0.00 41 1012.9
20260902163328 35 28 6.4 8.0 0.00 0.00 0.00 41 1012.9
20260902162338 34 146 1.6 6.4 0.00 0.00 0.00 42 1012.9
20260902161327 34 98 1.6 6.4 0.00 0.00 0.00 42 1012.9
20260902160333 33 76 3.2 6.4 0.00 0.00 0.00 44 1012.9
20260902155340 33 355 0.0 6.4 0.00 0.00 0.00 44 1013.0
20260902154330 33 76 3.2 6.4 0.00 0.00 0.00 46 1012.8
20260902153337 32 360 0.0 3.2 0.00 0.00 0.00 48 1012.9
20260902152344 32 52 3.2 6.4 0.00 0.00 0.00 49 1012.9
20260902151331 32 346 3.2 6.4 0.00 0.00 0.00 50 1012.9
20260902150342 31 19 3.2 4.8 0.00 0.00 0.00 52 1012.8
20260902145328 31 88 1.6 9.7 0.00 0.00 0.00 53 1012.6
20260902144334 30 60 1.6 6.4 0.00 0.00 0.00 55 1012.5
20260902143341 30 109 1.6 9.7 0.00 0.00 0.00 55 1012.5
20260902142332 30 84 1.6 6.4 0.00 0.00 0.00 56 1012.4
20260902141339 29 90 3.2 6.4 0.00 0.00 0.00 57 1012.3
20260902140327 29 98 1.6 3.2 0.00 0.00 0.00 59 1012.3
20260902135334 28 67 1.6 3.2 0.00 0.00 0.00 59 1012.2
20260902134406 28 61 0.0 6.4 0.00 0.00 0.00 59 1012.1
20260902133332 28 59 3.2 4.8 0.00 0.00 0.00 58 1012.0
20260902132337 28 66 0.0 1.6 0.00 0.00 0.00 58 1012.0
20260902131345 28 62 0.0 3.2 0.00 0.00 0.00 58 1011.8
20260902130336 28 65 1.6 3.2 0.00 0.00 0.00 57 1011.7
20260902125402 29 49 0.0 0.0 0.00 0.00 0.00 55 1011.7
20260902124330 29 49 0.0 1.6 0.00 0.00 0.00 55 1011.5
20260902123335 29 77 1.6 4.8 0.00 0.00 0.00 54 1011.4
20260902122341 29 38 0.0 4.8 0.00 0.00 0.00 54 1011.3
20260902121353 29 60 0.0 4.8 0.00 0.00 0.00 51 1011.2
20260902120339 29 53 0.0 1.6 0.00 0.00 0.00 51 1011.1
20260902115345 29 319 0.0 0.0 0.00 0.00 0.00 49 1011.0
20260902114332 30 317 0.0 0.0 0.00 0.00 0.00 49 1011.0
20260902113343 30 297 0.0 0.0 0.00 0.00 0.00 47 1011.0
20260902112330 30 297 0.0 0.0 0.00 0.00 0.00 46 1011.0
20260902111337 30 297 0.0 0.0 0.00 0.00 0.00 46 1011.0
20260902110326 30 297 0.0 0.0 0.00 0.00 0.00 46 1010.8
20260902105353 30 254 0.0 3.2 0.00 0.00 0.00 46 1010.8
20260902104339 30 250 0.0 3.2 0.00 0.00 0.00 46 1010.9
20260902103404 30 262 0.0 4.8 0.00 0.00 0.00 47 1011.0
20260902102350 31 269 0.0 1.6 0.00 0.00 0.00 48 1011.0
20260902101340 31 269 0.0 0.0 0.00 0.00 0.00 47 1011.0
20260902100326 31 269 0.0 0.0 0.00 0.00 0.00 46 1011.0
20260902095333 31 269 0.0 0.0 0.00 0.00 0.00 46 1011.0
20260902094340 31 269 0.0 0.0 0.00 0.00 0.00 44 1010.9
20260902093332 32 269 0.0 3.2 0.00 0.00 0.00 44 1010.9
20260902092337 32 284 0.0 1.6 0.00 0.00 0.00 43 1010.8
20260902091344 32 276 0.0 3.2 0.00 0.00 0.00 43 1010.8
20260902090331 32 257 1.6 6.4 0.00 0.00 0.00 43 1010.8
20260902085357 32 257 0.0 6.4 0.00 0.00 0.00 43 1010.9
20260902084348 32 273 0.0 1.6 0.00 0.00 0.00 44 1010.9
20260902083333 32 269 1.6 3.2 0.00 0.00 0.00 44 1010.9
20260902082341 32 252 1.6 8.0 0.00 0.00 0.00 43 1010.9
20260902081347 32 259 1.6 4.8 0.00 0.00 0.00 43 1011.0
20260902080335 32 269 0.0 4.8 0.00 0.00 0.00 43 1011.0
20260902075341 32 232 0.0 3.2 0.00 0.00 0.00 42 1010.9
20260902074328 32 215 0.0 6.4 0.00 0.00 0.00 41 1010.9
20260902073336 33 205 0.0 4.8 0.00 0.00 0.00 40 1010.8
20260902072327 33 173 0.0 3.2 0.00 0.00 0.00 39 1010.7
20260902071353 33 189 1.6 6.4 0.00 0.00 0.00 39 1010.7
20260902070337 33 229 3.2 6.4 0.00 0.00 0.00 38 1010.5